| time (UTC) | temp F | wind direction | speed MPH | gust MPH | rain 1hr in | rain 24hr in | rain mn in | humidity % | barometer mb |
| 20260905113516 | 89 | 214 | 15.0 | 23.0 | 0.00 | 0.00 | 0.00 | 42 | 1011.1 |
| 20260905112521 | 87 | 198 | 13.0 | 17.0 | 0.00 | 0.00 | 0.00 | 43 | 1011.2 |
| 20260905111520 | 88 | 215 | 17.0 | 26.0 | 0.00 | 0.00 | 0.00 | 42 | 1011.3 |
| 20260905110542 | 87 | 211 | 17.0 | 22.0 | 0.00 | 0.00 | 0.00 | 44 | 1011.2 |
| 20260905105519 | 87 | 208 | 26.0 | 35.0 | 0.00 | 0.00 | 0.00 | 42 | 1011.1 |
| 20260905104541 | 87 | 190 | 18.0 | 28.0 | 0.00 | 0.00 | 0.00 | 43 | 1011.2 |
| 20260905103520 | 87 | 217 | 23.0 | 31.0 | 0.00 | 0.00 | 0.00 | 43 | 1011.3 |
| 20260905102517 | 87 | 229 | 24.0 | 31.0 | 0.00 | 0.00 | 0.00 | 44 | 1011.4 |
| 20260905101520 | 86 | 220 | 26.0 | 44.0 | 0.00 | 0.00 | 0.00 | 43 | 1011.6 |
| 20260905100516 | 87 | 200 | 36.0 | 48.0 | 0.00 | 0.00 | 0.00 | 42 | 1011.5 |
| 20260905095521 | 87 | 214 | 27.0 | 38.0 | 0.00 | 0.00 | 0.00 | 42 | 1011.6 |
| 20260905094541 | 88 | 232 | 23.0 | 32.0 | 0.00 | 0.00 | 0.00 | 42 | 1011.6 |
| 20260905093519 | 88 | 219 | 28.0 | 42.0 | 0.00 | 0.00 | 0.00 | 42 | 1011.7 |
| 20260905092520 | 86 | 198 | 26.0 | 39.0 | 0.00 | 0.00 | 0.00 | 43 | 1011.7 |
| 20260905085536 | 86 | 202 | 29.0 | 45.0 | 0.00 | 0.00 | 0.00 | 45 | 1012.1 |
| 20260905084518 | 85 | 202 | 29.0 | 48.0 | 0.00 | 0.00 | 0.00 | 46 | 1012.1 |
| 20260905083537 | 84 | 198 | 34.0 | 50.0 | 0.00 | 0.00 | 0.00 | 46 | 1012.2 |
| 20260905082522 | 83 | 204 | 30.0 | 36.0 | 0.00 | 0.00 | 0.00 | 48 | 1012.3 |
| 20260905081519 | 83 | 200 | 28.0 | 38.0 | 0.00 | 0.00 | 0.00 | 48 | 1012.4 |
| 20260905080517 | 82 | 196 | 24.0 | 34.0 | 0.00 | 0.00 | 0.00 | 50 | 1012.5 |
| 20260905075520 | 81 | 206 | 30.0 | 43.0 | 0.00 | 0.00 | 0.00 | 50 | 1012.7 |
| 20260905074517 | 81 | 199 | 32.0 | 44.0 | 0.00 | 0.00 | 0.00 | 50 | 1012.7 |
| 20260905073516 | 80 | 204 | 32.0 | 41.0 | 0.00 | 0.00 | 0.00 | 51 | 1012.8 |
| 20260905072517 | 80 | 188 | 31.0 | 42.0 | 0.00 | 0.00 | 0.00 | 51 | 1012.9 |
| 20260905071537 | 79 | 204 | 28.0 | 43.0 | 0.00 | 0.00 | 0.00 | 53 | 1012.9 |
| 20260905070518 | 78 | 204 | 28.0 | 36.0 | 0.00 | 0.00 | 0.00 | 54 | 1012.9 |
| 20260905065518 | 78 | 188 | 27.0 | 37.0 | 0.00 | 0.00 | 0.00 | 55 | 1013.0 |
| 20260905064520 | 77 | 199 | 28.0 | 42.0 | 0.00 | 0.00 | 0.00 | 56 | 1013.1 |
| 20260905063516 | 75 | 197 | 31.0 | 37.0 | 0.00 | 0.00 | 0.00 | 58 | 1013.1 |
| 20260905062540 | 75 | 199 | 27.0 | 40.0 | 0.00 | 0.00 | 0.00 | 60 | 1013.0 |
| 20260905061516 | 74 | 210 | 26.0 | 33.0 | 0.00 | 0.00 | 0.00 | 61 | 1013.1 |
| 20260905060536 | 73 | 197 | 25.0 | 33.0 | 0.00 | 0.00 | 0.00 | 61 | 1013.1 |
| 20260905055537 | 72 | 201 | 14.0 | 22.0 | 0.00 | 0.00 | 0.00 | 62 | 1013.1 |
| 20260905054516 | 71 | 202 | 10.0 | 18.0 | 0.00 | 0.00 | 0.00 | 63 | 1013.2 |
| 20260905053517 | 71 | 188 | 12.0 | 17.0 | 0.00 | 0.00 | 0.00 | 64 | 1013.2 |
| 20260905052521 | 71 | 166 | 9.0 | 15.0 | 0.00 | 0.00 | 0.00 | 64 | 1013.2 |
| 20260905051517 | 70 | 161 | 6.0 | 10.0 | 0.00 | 0.00 | 0.00 | 65 | 1013.1 |
| 20260905050517 | 69 | 161 | 10.0 | 13.0 | 0.00 | 0.00 | 0.00 | 65 | 1013.1 |
| 20260905045517 | 68 | 190 | 11.0 | 17.0 | 0.00 | 0.00 | 0.00 | 65 | 1013.2 |
| 20260905044517 | 68 | 181 | 11.0 | 17.0 | 0.00 | 0.00 | 0.00 | 66 | 1013.1 |
| 20260905043517 | 67 | 180 | 16.0 | 20.0 | 0.00 | 0.00 | 0.00 | 67 | 1013.2 |
| 20260905042517 | 66 | 178 | 14.0 | 17.0 | 0.00 | 0.00 | 0.00 | 67 | 1013.1 |
| 20260905041559 | 66 | 189 | 9.0 | 12.0 | 0.00 | 0.00 | 0.00 | 69 | 1013.0 |
| 20260905040517 | 65 | 186 | 5.0 | 7.0 | 0.00 | 0.00 | 0.00 | 70 | 1012.9 |
| 20260905035519 | 64 | 167 | 5.0 | 9.0 | 0.00 | 0.00 | 0.00 | 72 | 1012.9 |
| 20260905034539 | 64 | 116 | 2.0 | 6.0 | 0.00 | 0.00 | 0.00 | 72 | 1012.8 |
| 20260905033519 | 64 | 175 | 7.0 | 9.0 | 0.00 | 0.00 | 0.00 | 72 | 1012.8 |
| 20260905032537 | 64 | 181 | 7.0 | 10.0 | 0.00 | 0.00 | 0.00 | 72 | 1012.9 |
| 20260905031516 | 64 | 208 | 4.0 | 7.0 | 0.00 | 0.00 | 0.00 | 71 | 1012.9 |
| 20260905030537 | 65 | 262 | 6.0 | 9.0 | 0.00 | 0.00 | 0.00 | 71 | 1012.9 |
| 20260905025517 | 64 | 212 | 8.0 | 11.0 | 0.00 | 0.00 | 0.00 | 72 | 1013.0 |
| 20260905024517 | 64 | 238 | 3.0 | 6.0 | 0.00 | 0.00 | 0.00 | 72 | 1013.0 |
| 20260905023557 | 64 | 245 | 4.0 | 9.0 | 0.00 | 0.00 | 0.00 | 73 | 1013.1 |
| 20260905022517 | 64 | 178 | 9.0 | 12.0 | 0.00 | 0.00 | 0.00 | 73 | 1013.0 |
| 20260905021537 | 64 | 174 | 7.0 | 11.0 | 0.00 | 0.00 | 0.00 | 74 | 1013.0 |
| 20260905020521 | 64 | 167 | 5.0 | 9.0 | 0.00 | 0.00 | 0.00 | 74 | 1013.0 |
| 20260905015519 | 64 | 167 | 6.0 | 11.0 | 0.00 | 0.00 | 0.00 | 74 | 1013.0 |
| 20260905014517 | 64 | 198 | 7.0 | 10.0 | 0.00 | 0.00 | 0.00 | 74 | 1013.0 |
| 20260905013517 | 64 | 185 | 11.0 | 15.0 | 0.00 | 0.00 | 0.00 | 76 | 1013.1 |
| 20260905012517 | 64 | 179 | 7.0 | 11.0 | 0.00 | 0.00 | 0.00 | 77 | 1013.2 |
| 20260905011518 | 64 | 179 | 5.0 | 7.0 | 0.00 | 0.00 | 0.00 | 77 | 1013.1 |
| 20260905010518 | 64 | 166 | 7.0 | 11.0 | 0.00 | 0.00 | 0.00 | 77 | 1013.2 |
| 20260905005518 | 65 | 151 | 6.0 | 14.0 | 0.00 | 0.00 | 0.00 | 76 | 1013.2 |
| 20260905004516 | 65 | 150 | 6.0 | 7.0 | 0.00 | 0.00 | 0.00 | 76 | 1013.2 |
| 20260905003537 | 65 | 172 | 7.0 | 9.0 | 0.00 | 0.00 | 0.00 | 76 | 1013.2 |
| 20260905002521 | 65 | 184 | 7.0 | 11.0 | 0.00 | 0.00 | 0.00 | 76 | 1013.3 |
| 20260905001537 | 65 | 207 | 3.0 | 5.0 | 0.00 | 0.00 | 0.00 | 77 | 1013.3 |
| 20260905000539 | 65 | 183 | 4.0 | 5.0 | 0.00 | 0.00 | 0.00 | 77 | 1013.3 |
| 20260904235517 | 65 | 199 | 1.0 | 4.0 | 0.00 | 0.00 | 0.00 | 77 | 1013.4 |
| 20260904234517 | 65 | 179 | 6.0 | 7.0 | 0.00 | 0.00 | 0.00 | 77 | 1013.3 |
| 20260904233517 | 66 | 219 | 6.0 | 9.0 | 0.00 | 0.00 | 0.00 | 76 | 1013.2 |
| 20260904232521 | 66 | 253 | 3.0 | 5.0 | 0.00 | 0.00 | 0.00 | 76 | 1013.1 |
| 20260904231517 | 67 | 201 | 3.0 | 6.0 | 0.00 | 0.00 | 0.00 | 75 | 1013.2 |
| 20260904230517 | 67 | 209 | 6.0 | 9.0 | 0.00 | 0.00 | 0.00 | 74 | 1013.4 |
| 20260904225518 | 67 | 268 | 3.0 | 6.0 | 0.00 | 0.00 | 0.00 | 74 | 1013.5 |
| 20260904224537 | 67 | 278 | 5.0 | 7.0 | 0.00 | 0.00 | 0.00 | 74 | 1013.5 |
| 20260904223517 | 67 | 239 | 6.0 | 8.0 | 0.00 | 0.00 | 0.00 | 74 | 1013.5 |
| 20260904222522 | 68 | 251 | 4.0 | 6.0 | 0.00 | 0.00 | 0.00 | 73 | 1013.5 |
| 20260904221538 | 69 | 223 | 9.0 | 11.0 | 0.00 | 0.00 | 0.00 | 71 | 1013.3 |
| 20260904220518 | 69 | 252 | 7.0 | 9.0 | 0.00 | 0.00 | 0.00 | 72 | 1013.5 |
| 20260904215518 | 68 | 250 | 6.0 | 8.0 | 0.00 | 0.00 | 0.00 | 72 | 1013.5 |
| 20260904214517 | 68 | 265 | 5.0 | 7.0 | 0.00 | 0.00 | 0.00 | 72 | 1013.6 |
| 20260904213518 | 68 | 258 | 6.0 | 8.0 | 0.00 | 0.00 | 0.00 | 72 | 1013.7 |
| 20260904212521 | 69 | 228 | 8.0 | 10.0 | 0.00 | 0.00 | 0.00 | 71 | 1013.6 |
| 20260904211518 | 69 | 227 | 5.0 | 8.0 | 0.00 | 0.00 | 0.00 | 71 | 1013.7 |
| 20260904210517 | 69 | 189 | 6.0 | 9.0 | 0.00 | 0.00 | 0.00 | 70 | 1013.6 |
| 20260904205518 | 70 | 184 | 5.0 | 7.0 | 0.00 | 0.00 | 0.00 | 69 | 1013.5 |
| 20260904204517 | 71 | 151 | 5.0 | 7.0 | 0.00 | 0.00 | 0.00 | 67 | 1013.5 |
| 20260904203517 | 71 | 172 | 3.0 | 7.0 | 0.00 | 0.00 | 0.00 | 67 | 1013.6 |
| 20260904202517 | 71 | 240 | 1.0 | 5.0 | 0.00 | 0.00 | 0.00 | 66 | 1013.6 |
| 20260904201538 | 71 | 28 | 0.0 | 3.0 | 0.00 | 0.00 | 0.00 | 66 | 1013.5 |
| 20260904200538 | 71 | 245 | 1.0 | 7.0 | 0.00 | 0.00 | 0.00 | 66 | 1013.5 |
| 20260904195540 | 71 | 0.0 | 0.0 | 0.00 | 0.00 | 0.00 | 66 | 1013.5 | |
| 20260904194518 | 72 | 157 | 1.0 | 4.0 | 0.00 | 0.00 | 0.00 | 65 | 1013.5 |
| 20260904193518 | 72 | 164 | 5.0 | 7.0 | 0.00 | 0.00 | 0.00 | 64 | 1013.5 |
| 20260904192519 | 72 | 164 | 4.0 | 5.0 | 0.00 | 0.00 | 0.00 | 63 | 1013.5 |
| 20260904191518 | 72 | 207 | 1.0 | 4.0 | 0.00 | 0.00 | 0.00 | 63 | 1013.4 |
| 20260904190519 | 73 | 166 | 1.0 | 3.0 | 0.00 | 0.00 | 0.00 | 63 | 1013.6 |
| 20260904185537 | 72 | 155 | 5.0 | 9.0 | 0.00 | 0.00 | 0.00 | 63 | 1013.6 |
| 20260904184518 | 72 | 145 | 1.0 | 5.0 | 0.00 | 0.00 | 0.00 | 66 | 1013.7 |
| 20260904183516 | 72 | 0.0 | 0.0 | 0.00 | 0.00 | 0.00 | 66 | 1013.7 | |
| 20260904182517 | 73 | 251 | 0.0 | 3.0 | 0.00 | 0.00 | 0.00 | 65 | 1013.7 |
| 20260904181517 | 73 | 127 | 3.0 | 6.0 | 0.00 | 0.00 | 0.00 | 65 | 1013.7 |
| 20260904180522 | 73 | 26 | 1.0 | 3.0 | 0.00 | 0.00 | 0.00 | 65 | 1013.6 |
| 20260904175517 | 73 | 115 | 5.0 | 7.0 | 0.00 | 0.00 | 0.00 | 65 | 1013.6 |
| 20260904174537 | 74 | 195 | 0.0 | 3.0 | 0.00 | 0.00 | 0.00 | 63 | 1013.6 |
| 20260904173518 | 73 | 110 | 3.0 | 5.0 | 0.00 | 0.00 | 0.00 | 65 | 1013.5 |
| 20260904172518 | 74 | 27 | 1.0 | 5.0 | 0.00 | 0.00 | 0.00 | 65 | 1013.4 |
| 20260904171557 | 74 | 85 | 0.0 | 3.0 | 0.00 | 0.00 | 0.00 | 63 | 1013.3 |
| 20260904170518 | 75 | 337 | 1.0 | 8.0 | 0.00 | 0.00 | 0.00 | 61 | 1013.1 |
| 20260904165517 | 76 | 0.0 | 0.0 | 0.00 | 0.00 | 0.00 | 61 | 1013.0 | |
| 20260904164518 | 77 | 12 | 1.0 | 4.0 | 0.00 | 0.00 | 0.00 | 58 | 1013.0 |
| 20260904163517 | 78 | 19 | 0.0 | 3.0 | 0.00 | 0.00 | 0.00 | 56 | 1013.1 |
| 20260904162519 | 79 | 226 | 1.0 | 5.0 | 0.00 | 0.00 | 0.00 | 53 | 1013.2 |
| 20260904161517 | 80 | 218 | 3.0 | 6.0 | 0.00 | 0.00 | 0.00 | 51 | 1013.1 |
| 20260904160518 | 79 | 278 | 2.0 | 5.0 | 0.00 | 0.00 | 0.00 | 52 | 1013.3 |
| 20260904155518 | 79 | 257 | 1.0 | 4.0 | 0.00 | 0.00 | 0.00 | 53 | 1013.3 |
| 20260904154519 | 77 | 163 | 5.0 | 8.0 | 0.00 | 0.00 | 0.00 | 53 | 1013.4 |
| 20260904153517 | 76 | 134 | 6.0 | 11.0 | 0.00 | 0.00 | 0.00 | 56 | 1013.4 |
| 20260904152519 | 77 | 213 | 20.0 | 33.0 | 0.00 | 0.00 | 0.00 | 55 | 1013.5 |
| 20260904151517 | 80 | 219 | 9.0 | 14.0 | 0.00 | 0.00 | 0.00 | 48 | 1013.3 |
| 20260904150518 | 80 | 289 | 4.0 | 8.0 | 0.00 | 0.00 | 0.00 | 46 | 1013.4 |
| 20260904145518 | 81 | 337 | 5.0 | 8.0 | 0.00 | 0.00 | 0.00 | 45 | 1013.4 |
| 20260904144518 | 81 | 321 | 4.0 | 7.0 | 0.00 | 0.00 | 0.00 | 44 | 1013.3 |
| 20260904143538 | 81 | 315 | 5.0 | 7.0 | 0.00 | 0.00 | 0.00 | 45 | 1013.3 |
| 20260904142518 | 81 | 351 | 5.0 | 7.0 | 0.00 | 0.00 | 0.00 | 44 | 1013.3 |
| 20260904141518 | 82 | 333 | 7.0 | 11.0 | 0.00 | 0.00 | 0.00 | 43 | 1013.3 |
| 20260904140519 | 83 | 313 | 4.0 | 9.0 | 0.00 | 0.00 | 0.00 | 43 | 1013.4 |
| 20260904135537 | 82 | 172 | 4.0 | 8.0 | 0.00 | 0.00 | 0.00 | 42 | 1013.5 |
| 20260904134538 | 82 | 263 | 6.0 | 9.0 | 0.00 | 0.00 | 0.00 | 43 | 1013.5 |
| 20260904133518 | 82 | 283 | 11.0 | 19.0 | 0.00 | 0.00 | 0.00 | 43 | 1013.4 |
| 20260904132518 | 84 | 313 | 10.0 | 15.0 | 0.00 | 0.00 | 0.00 | 42 | 1013.4 |
| 20260904131537 | 84 | 344 | 7.0 | 14.0 | 0.00 | 0.00 | 0.00 | 42 | 1013.4 |
| 20260904130522 | 84 | 293 | 10.0 | 23.0 | 0.00 | 0.00 | 0.00 | 43 | 1013.5 |
| 20260904125539 | 83 | 296 | 15.0 | 27.0 | 0.00 | 0.00 | 0.00 | 44 | 1013.6 |
| 20260904124516 | 83 | 271 | 20.0 | 29.0 | 0.00 | 0.00 | 0.00 | 43 | 1013.7 |
| 20260904123538 | 83 | 253 | 19.0 | 28.0 | 0.00 | 0.00 | 0.00 | 43 | 1013.8 |
| 20260904122538 | 81 | 249 | 13.0 | 21.0 | 0.00 | 0.00 | 0.00 | 45 | 1014.0 |
| 20260904121517 | 83 | 272 | 13.0 | 19.0 | 0.00 | 0.00 | 0.00 | 44 | 1014.1 |
| 20260904120518 | 82 | 314 | 6.0 | 11.0 | 0.00 | 0.00 | 0.00 | 45 | 1014.1 |
| 20260904115518 | 82 | 248 | 18.0 | 35.0 | 0.00 | 0.00 | 0.00 | 46 | 1014.2 |
| 20260904114518 | 82 | 236 | 19.0 | 28.0 | 0.00 | 0.00 | 0.00 | 45 | 1014.3 |